[[{"header":{"parameterUnit":"m.s-1","parameterCategory":1,"la1":30.2991,"la2":30.254,"lo1":-89.0895,"lo2":-89.0444,"dy":0.0017,"dx":0.0017,"nx":28,"ny":28,"refTime":"2023-10-16T03:00:00:Z","depth":0,"parameterNumber":2,"parameterNumberName":"U-component_of_WINDS"},"data":[0,0,0,0,0,0,0,0,0,0,0,0,0,0,0,0,0,0,0,0,0,0,0,0,0,0,0,0,0,0,0,0,0,0,0,0,0,0,0,0,0,0,0,0,0,0,0,0,0,0,0,0,0,0,0,0,0,0,1.4922,1.4921,0,1.4894,1.4894,1.4894,1.4889,1.4889,1.489,1.489,1.4859,1.4858,1.4857,0,0,0,0,0,0,0,0,0,0,0,0,0,1.4968,1.4967,1.4922,1.4921,1.4921,1.4894,1.4894,1.4894,1.4889,1.4889,1.489,1.489,1.486,1.4858,1.4857,0,0,0,0,0,0,0,0,0,0,0,0,0,1.4945,1.4967,1.4922,1.4916,1.4915,1.4894,1.4894,1.4893,1.4889,1.489,1.489,1.489,1.486,1.4859,1.4857,1.484,0,0,1.4852,1.4852,0,0,0,0,0,0,0,0,1.4946,1.4943,1.4917,1.4916,1.4915,1.4896,1.4899,1.4875,1.4889,1.4899,1.489,1.489,1.4871,1.4869,1.4862,1.4839,1.4837,1.4852,1.4851,1.485,1.485,0,0,0,0,0,0,0,1.4948,1.4945,1.4911,1.4917,1.4915,1.4914,1.4911,1.4895,1.4883,1.4898,1.4898,1.4895,1.487,1.4864,1.4862,1.4837,1.4852,1.4851,1.485,1.4849,1.4798,1.4797,0,0,0,0,0,0,1.4951,1.4946,1.4912,1.491,1.4932,1.4913,1.4909,1.4901,1.4883,1.4881,1.4894,1.4894,1.4866,1.4864,1.4861,1.4839,1.485,1.4849,1.4848,1.4798,1.4798,1.4797,0,0,0,0,0,0,1.4952,1.4948,1.4913,1.4928,1.4923,1.4911,1.4903,1.4901,1.4894,1.488,1.4878,1.489,1.4867,1.4863,1.4845,1.4838,1.4848,1.4847,1.4799,1.4798,1.4797,1.4796,0,0,0,0,0,0,1.4953,1.4948,1.4942,1.4928,1.4922,1.4898,1.4902,1.49,1.4892,1.4892,1.4876,1.4873,1.4867,1.4848,1.4844,1.4836,1.4846,1.4799,1.4798,1.4797,1.4797,1.4796,1.4795,0,0,0,0,0,1.4955,1.4942,1.4942,1.4938,1.4914,1.4898,1.4895,1.4888,1.4891,1.4885,1.4876,1.4874,1.484,1.4846,1.4841,1.4833,1.4799,1.4798,1.4798,1.4797,1.4796,1.4795,0,0,0,0,0,0,1.4955,1.494,1.494,1.4922,1.4911,1.4897,1.4888,1.4887,1.4874,1.4875,1.4866,1.4863,1.4846,1.4838,1.4845,1.4816,1.482,1.4818,1.4821,1.482,1.4819,1.482,1.4844,0,0,0,0,0,1.4953,1.4942,1.4929,1.4915,1.491,1.49,1.4893,1.4889,1.4877,1.4872,1.4862,1.485,1.4837,1.4828,1.4815,1.4796,1.4793,1.4789,1.4788,1.4787,1.4785,1.4774,1.4772,1.4794,1.4794,1.4794,0,0,1.4949,1.4939,1.4932,1.4915,1.4906,1.4894,1.4896,1.4883,1.4874,1.487,1.4853,1.4845,1.4831,1.4813,1.4805,1.4806,1.4778,1.4786,1.4785,1.4783,1.4773,1.4771,1.4769,1.4793,1.4793,1.4793,0,0,1.4934,1.4926,1.4913,1.4905,1.4892,1.4886,1.4883,1.487,1.4865,1.4848,1.4845,1.4834,1.4811,1.4801,1.4793,1.4777,1.4774,1.4773,1.4766,1.4756,1.4754,1.4753,1.4746,1.4744,1.4771,1.4771,1.4771,0,1.493,1.4912,1.4907,1.4894,1.4886,1.4883,1.487,1.4862,1.4845,1.484,1.4842,1.4814,1.4804,1.4784,1.478,1.4774,1.477,1.4773,1.4755,1.4753,1.4752,1.4745,1.4743,1.4771,1.4771,1.4771,1.4771,0,1.4907,1.4894,1.4885,1.487,1.4862,1.4849,1.4841,1.4833,1.483,1.4824,1.4807,1.4796,1.478,1.4776,1.4772,1.4755,1.4756,1.4757,1.476,1.475,1.4743,1.4741,1.4771,1.4771,1.4771,1.4771,0,0,1.4889,1.4873,1.487,1.4863,1.4849,1.4839,1.4826,1.4813,1.4805,1.4795,1.4783,1.4764,1.4766,1.4757,1.4752,1.4744,1.4731,1.4746,1.4745,1.4742,1.471,1.4709,1.4706,1.473,1.4729,1.4729,1.4711,0,1.4872,1.4849,1.4845,1.4825,1.4813,1.4811,1.48,1.479,1.4784,1.4773,1.4766,1.4753,1.4756,1.4751,1.4742,1.4734,1.4724,1.4735,1.4718,1.4717,1.472,1.4703,1.4701,1.4684,1.4709,1.4708,1.4708,0,1.4848,1.4838,1.4817,1.4806,1.4801,1.479,1.4778,1.4767,1.4756,1.4753,1.4744,1.4741,1.4727,1.4733,1.4713,1.4721,1.4714,1.4709,1.4708,1.4705,1.4711,1.4698,1.4679,1.4676,1.4704,1.4704,1.4705,0,1.4837,1.4817,1.4802,1.4797,1.4784,1.4776,1.477,1.476,1.4752,1.4741,1.4736,1.4723,1.4716,1.4706,1.4699,1.4704,1.468,1.4685,1.4676,1.4676,1.4669,1.4669,1.4647,1.4667,1.4667,1.4667,1.4667,0,1.4817,1.4804,1.4797,1.4787,1.4773,1.4768,1.4754,1.4748,1.4739,1.4728,1.4726,1.4716,1.4709,1.4697,1.4692,1.4676,1.4673,1.4669,1.4668,1.4669,1.4669,1.4663,1.4663,1.4666,1.4666,1.4667,1.4667,0,1.48,1.4795,1.4779,1.4768,1.4765,1.4755,1.4745,1.4736,1.4731,1.4717,1.4714,1.4705,1.4692,1.4685,1.4668,1.4665,1.4647,1.4647,1.4651,1.465,1.464,1.4641,1.4612,1.4608,1.4632,1.4631,1.4631,0,1.4787,1.4777,1.4766,1.4759,1.4753,1.4742,1.4735,1.473,1.4722,1.471,1.4702,1.4689,1.4678,1.4656,1.4648,1.4636,1.4634,1.4625,1.4632,1.4633,1.4633,1.4633,1.4632,1.4623,1.4623,1.4623,1.4623,0,1.4764,1.4763,1.4752,1.4741,1.4733,1.4723,1.4714,1.4708,1.4703,1.4694,1.4681,1.4672,1.4656,1.4643,1.463,1.4623,1.4621,1.4621,1.4618,1.4618,1.462,1.4618,1.4646,1.4621,1.4621,1.4622,1.4622,1.4622,1.4748,1.4739,1.473,1.4719,1.4712,1.4704,1.4695,1.4689,1.4678,1.4665,1.4664,1.4649,1.4639,1.4622,1.4615,1.4604,1.4605,1.4601,1.46,1.4598,1.4598,1.4624,1.4601,1.4601,1.4602,1.4602,1.4602,0,1.4724,1.4719,1.4709,1.4696,1.4688,1.4689,1.468,1.4671,1.4659,1.4651,1.4641,1.4626,1.4613,1.4605,1.4592,1.4585,1.4584,1.4581,1.4581,1.4579,1.4597,1.4601,1.4582,1.4582,1.4582,1.4582,1.4582,1.4582,1.471,1.4695,1.4693,1.4675,1.4669,1.4656,1.4651,1.4643,1.4636,1.462,1.461,1.4605,1.4597,1.4584,1.4572,1.457,1.4565,1.4562,1.456,1.4576,1.4578,1.458,1.4583,1.4562,1.4562,1.4543,1.4543,1.4543]},{"header":{"parameterUnit":"m.s-1","parameterCategory":1,"la1":30.2991,"la2":30.254,"lo1":-89.0895,"lo2":-89.0444,"dy":0.0017,"dx":0.0017,"nx":28,"ny":28,"refTime":"2023-10-16T03:00:00:Z","depth":0,"parameterNumber":3,"parameterNumberName":"V-component_of_WINDS"},"data":[0,0,0,0,0,0,0,0,0,0,0,0,0,0,0,0,0,0,0,0,0,0,0,0,0,0,0,0,0,0,0,0,0,0,0,0,0,0,0,0,0,0,0,0,0,0,0,0,0,0,0,0,0,0,0,0,0,0,-6.9386,-6.9388,0,-6.956,-6.9562,-6.9564,-6.9467,-6.9463,-6.9458,-6.9453,-6.9625,-6.9633,-6.9642,0,0,0,0,0,0,0,0,0,0,0,0,0,-6.8965,-6.8973,-6.9386,-6.9388,-6.939,-6.9559,-6.9562,-6.9564,-6.9468,-6.9462,-6.9457,-6.9451,-6.9622,-6.9632,-6.9643,0,0,0,0,0,0,0,0,0,0,0,0,0,-6.9144,-6.8976,-6.9385,-6.9363,-6.9363,-6.9559,-6.9562,-6.9565,-6.9469,-6.9462,-6.9455,-6.9449,-6.9618,-6.9631,-6.9645,-6.9871,0,0,-6.9686,-6.9692,0,0,0,0,0,0,0,0,-6.9134,-6.9159,-6.9364,-6.9365,-6.9365,-6.9485,-6.9476,-6.9667,-6.9471,-6.9429,-6.9453,-6.9445,-6.9583,-6.9599,-6.9647,-6.9879,-6.9886,-6.9687,-6.9695,-6.9701,-6.9705,0,0,0,0,0,0,0,-6.9122,-6.9151,-6.9454,-6.9367,-6.9368,-6.9342,-6.936,-6.9512,-6.9544,-6.9432,-6.9425,-6.9448,-6.9582,-6.9635,-6.9651,-6.9889,-6.9687,-6.9699,-6.9707,-6.9712,-7.0314,-7.0321,0,0,0,0,0,0,-6.9111,-6.9142,-6.9449,-6.9459,-6.923,-6.9355,-6.9375,-6.9453,-6.9542,-6.9549,-6.9454,-6.9442,-6.9615,-6.9635,-6.9656,-6.9927,-6.9701,-6.9714,-6.9721,-7.0306,-7.0316,-7.0324,0,0,0,0,0,0,-6.9103,-6.914,-6.9442,-6.9299,-6.9336,-6.937,-6.9459,-6.9461,-6.9513,-6.9558,-6.9563,-6.9502,-6.961,-6.9637,-6.9819,-6.9932,-6.972,-6.9732,-7.0297,-7.0309,-7.032,-7.0471,0,0,0,0,0,0,-6.9091,-6.9137,-6.9225,-6.9302,-6.9344,-6.9604,-6.9466,-6.9469,-6.9537,-6.9524,-6.9605,-6.9611,-6.9607,-6.9799,-6.9832,-6.9947,-6.9742,-7.0287,-7.0302,-7.0316,-7.0456,-7.0487,-7.0513,0,0,0,0,0,-6.9076,-6.9259,-6.923,-6.9268,-6.9455,-6.9611,-6.9634,-6.9627,-6.9547,-6.9634,-6.9664,-6.9608,-6.9914,-6.9818,-6.9855,-6.9975,-7.0279,-7.0298,-7.0315,-7.0444,-7.0481,-7.0512,0,0,0,0,0,0,-6.9193,-6.9269,-6.9237,-6.9451,-6.9526,-6.9594,-6.9705,-6.9667,-6.9764,-6.9748,-6.9733,-6.9752,-6.9941,-6.9975,-6.9868,-7.0198,-7.0084,-7.011,-7.0169,-7.0205,-7.0233,-7.0221,-6.9754,0,0,0,0,0,-6.9244,-6.9366,-6.9425,-6.9608,-6.9647,-6.967,-6.9737,-6.9726,-6.9801,-6.9831,-6.9874,-6.9947,-7.0059,-7.0134,-7.024,-7.046,-7.0476,-7.0561,-7.0589,-7.0612,-7.0635,-7.0754,-7.0793,-7.0382,-7.0382,-7.0382,0,0,-6.9349,-6.9406,-6.9484,-6.9633,-6.9689,-6.9814,-6.9697,-6.9834,-6.9926,-6.9851,-7.0026,-7.006,-7.014,-7.0343,-7.0434,-7.0378,-7.0752,-7.0635,-7.0653,-7.0663,-7.0777,-7.0815,-7.085,-7.0394,-7.0392,-7.039,0,0,-6.9606,-6.9662,-6.9821,-6.988,-6.9967,-6.9981,-7.0019,-7.0095,-7.0115,-7.029,-7.0237,-7.0345,-7.0539,-7.0599,-7.0655,-7.0935,-7.0888,-7.097,-7.1118,-7.1234,-7.1267,-7.1295,-7.1396,-7.1432,-7.0992,-7.0992,-7.0993,0,-6.9726,-6.9916,-6.9906,-7.0049,-7.0116,-7.0056,-7.0215,-7.0272,-7.0389,-7.0435,-7.0371,-7.0614,-7.0664,-7.088,-7.0949,-7.0995,-7.1038,-7.0961,-7.1263,-7.1292,-7.1318,-7.1414,-7.1452,-7.1002,-7.1001,-7.1,-7.0999,0,-7.0059,-7.0191,-7.0308,-7.0425,-7.0504,-7.0655,-7.0667,-7.0748,-7.0729,-7.0749,-7.0928,-7.0986,-7.1103,-7.1153,-7.1135,-7.1367,-7.1329,-7.1265,-7.1149,-7.1367,-7.1457,-7.1493,-7.1015,-7.1012,-7.1009,-7.1007,0,0,-7.0395,-7.0505,-7.0549,-7.0601,-7.0693,-7.0794,-7.0941,-7.1058,-7.1128,-7.1209,-7.1332,-7.1498,-7.1439,-7.1502,-7.149,-7.1593,-7.1811,-7.1515,-7.1517,-7.1569,-7.207,-7.2119,-7.2162,-7.178,-7.1787,-7.1793,-7.2063,0,-7.0658,-7.0918,-7.0914,-7.1154,-7.1275,-7.122,-7.1348,-7.1417,-7.144,-7.1544,-7.1567,-7.1686,-7.1599,-7.1637,-7.1736,-7.1764,-7.1912,-7.1744,-7.1893,-7.1898,-7.1876,-7.2208,-7.226,-7.2513,-7.2098,-7.2104,-7.2108,0,-7.1001,-7.1098,-7.1351,-7.1426,-7.1476,-7.1592,-7.1698,-7.1799,-7.1876,-7.1885,-7.1957,-7.1929,-7.2076,-7.1956,-7.2158,-7.2044,-7.2104,-7.2127,-7.2137,-7.2151,-7.2017,-7.2232,-7.2593,-7.2632,-7.2163,-7.2159,-7.2155,0,-7.1222,-7.1414,-7.1591,-7.1638,-7.1729,-7.1811,-7.1853,-7.1923,-7.1993,-7.2085,-7.2131,-7.2238,-7.2297,-7.238,-7.2381,-7.2293,-7.2585,-7.2465,-7.2596,-7.2596,-7.2661,-7.2657,-7.3038,-7.2698,-7.2698,-7.2697,-7.2696,0,-7.1518,-7.1675,-7.1692,-7.1801,-7.1974,-7.1967,-7.2138,-7.2171,-7.2234,-7.2347,-7.2304,-7.241,-7.2405,-7.2512,-7.2513,-7.268,-7.2707,-7.2717,-7.2716,-7.2722,-7.2721,-7.2762,-7.2745,-7.2707,-7.2705,-7.2703,-7.2701,0,-7.1794,-7.1812,-7.2001,-7.2073,-7.2094,-7.2219,-7.2279,-7.2382,-7.24,-7.2543,-7.2576,-7.2605,-7.2729,-7.2738,-7.2881,-7.2881,-7.3085,-7.3063,-7.306,-7.3056,-7.3187,-7.3175,-7.3608,-7.3665,-7.3288,-7.3291,-7.3294,0,-7.1982,-7.2103,-7.2188,-7.2261,-7.2308,-7.2427,-7.2499,-7.2496,-7.2573,-7.2669,-7.276,-7.288,-7.2976,-7.3176,-7.3209,-7.3317,-7.3299,-7.3443,-7.3315,-7.3317,-7.3302,-7.3295,-7.3307,-7.3468,-7.3473,-7.3476,-7.3479,0,-7.2315,-7.2318,-7.2425,-7.2537,-7.2625,-7.2711,-7.2792,-7.2854,-7.286,-7.2948,-7.3075,-7.315,-7.3297,-7.3416,-7.3523,-7.3562,-7.3522,-7.3519,-7.3555,-7.3563,-7.3557,-7.3563,-7.3129,-7.3509,-7.3506,-7.3504,-7.3502,-7.3501,-7.2554,-7.2658,-7.2735,-7.2856,-7.2916,-7.2993,-7.3093,-7.3125,-7.3232,-7.3353,-7.3344,-7.3485,-7.3557,-7.3696,-7.3745,-7.3854,-7.3804,-7.3857,-7.387,-7.3883,-7.3898,-7.3539,-7.3873,-7.3872,-7.3871,-7.387,-7.387,0,-7.2885,-7.2931,-7.3043,-7.3158,-7.3253,-7.3209,-7.3295,-7.3377,-7.3503,-7.3575,-7.3671,-7.3818,-7.3933,-7.3975,-7.4087,-7.4166,-7.4151,-7.4196,-7.4191,-7.4201,-7.3934,-7.3893,-7.4207,-7.4207,-7.4207,-7.4207,-7.4207,-7.4207,-7.3068,-7.3243,-7.3255,-7.3458,-7.3503,-7.3643,-7.3697,-7.3767,-7.3824,-7.3991,-7.4088,-7.4115,-7.4175,-7.4291,-7.4395,-7.4403,-7.4447,-7.4501,-7.4502,-7.4253,-7.4219,-7.4187,-7.4147,-7.451,-7.4511,-7.4759,-7.4761,-7.4763]}]]